Home > Weather > Havana > Past weeks

Flag for Cuba Past Weather in Havana, Cuba — Yesterday and Last 2 Weeks

Now
72 °F

Clear.


Feels Like: 69 °F
Forecast: 79 / 89 °F
Wind: 2 mph from North

Location: Aeropuerto Jose Marti - Rancho-Boyeros - Habana

Current Time: Jun 28, 2016 at 5:51:17 AM

Latest Report: Jun 28, 2016 at 4:55 AM


Visibility: 6 mi

Pressure: 29.98 "Hg

Humidity: 88%

Dew Point: 68 °F

Location of HavanaLocation

Past Weather in Havana — Graph

°F

Havana Temperature Yesterday

Maximum temperature yesterday: 90 °F (at 12:55 PM)
Minimum temperature yesterday: 73 °F (at 5:55 AM)
Average temperature yesterday: 80 °F

High & Low Weather Summary for the Past Weeks

 TemperatureHumidityPressure
High91 °F (Jun 15, 2:55 PM)94% (Jun 14, 2:55 AM)30.15 "Hg (Jun 14, 2:55 AM)
Low72 °F (Jun 14, 3:56 PM)46% (Jun 15, 3:55 PM)29.95 "Hg (Jun 13, 5:55 PM)
Average80 °F75%30.05 "Hg
* Reported Jun 13 3:55 AM — Jun 28 3:55 AM, Havana, Weather by CustomWeather, © 2016

Note: Actual official high and low records may vary slightly from our data, if they occured in-between our weather recording intervals... More about our weather records

Advertising

Havana Weather History for the Previous 24 Hours

Scroll right to see more
 ConditionsComfort  
Time TempWeatherWind HumidityBarometerVisibility
3:55 AM
Tue, Jun 28
73 °FClear.3 mph83%29.98 "Hg6 mi
2:55 AM73 °FClear.3 mph83%30.01 "Hg6 mi
1:55 AM75 °FClear.3 mph78%30.01 "Hg6 mi
12:55 AM75 °FClear.1 mph83%30.01 "Hg6 mi
11:55 PM
Mon, Jun 27
75 °FClear.2 mph83%30.04 "Hg6 mi
10:55 PM77 °FClear.2 mph83%30.01 "Hg6 mi
9:55 PM79 °FClear.6 mph79%30.01 "Hg6 mi
8:55 PM79 °FPassing clouds.9 mph74%30.01 "Hg6 mi
7:55 PM81 °FScattered clouds.3 mph70%30.01 "Hg6 mi
6:55 PM86 °FThundershowers. Partly sunny.10 mph59%30.01 "Hg5 mi
5:55 PM88 °FPartly sunny.8 mph55%29.98 "Hg6 mi
4:55 PM84 °FPartly sunny.2 mph66%30.01 "Hg6 mi
3:55 PM81 °FPartly sunny.3 mph74%30.01 "Hg6 mi
3:04 PM73 °FThunderstorms. Partly sunny.12 mph83%30.04 "Hg4 mi
2:55 PM77 °FLight rain. Partly sunny.8 mph79%30.04 "Hg4 mi
1:58 PM86 °FRain. Partly sunny.17 mph62%30.01 "Hg3 mi
12:55 PM90 °FPartly sunny.5 mph49%30.04 "HgN/A
11:55 AM88 °FScattered clouds.5 mph55%30.07 "HgN/A
10:55 AM86 °FScattered clouds.7 mph62%30.04 "HgN/A
9:55 AM84 °FPassing clouds.7 mph66%30.04 "HgN/A
8:55 AM81 °FPassing clouds.6 mph79%30.04 "Hg6 mi
7:55 AM75 °FPassing clouds.No wind89%30.04 "Hg6 mi
6:55 AM73 °FPassing clouds.3 mph89%30.01 "Hg6 mi
5:55 AM73 °FPassing clouds.3 mph89%30.01 "Hg6 mi
Weather by CustomWeather, © 2016

See weather overviewHow to use our weather pages